Вернуться в каталог

SL-14 DEB

АктивенPO
NORAD 45280·DEBRIS·🇷🇺 Russia

Запущен Aug 15, 1991 с Plesetsk Cosmodrome

Loading…

Ближайшие Пролёты (ближайшие 24 часа)

TLE

СвежийSource: Space-Track

Эпоха: Sep 13, 2026, 23:23 UTC

1 45280U 91056S   26256.97487690  .00000866  00000-0  20565-2 0  9991
2 45280  82.5844  80.4582 0015119 103.7208 256.5601 13.22068225316845

Отслеживайте SL-14 DEB в реальном времени с AllMySat

Download on the App Store